Flag for Sweden Weather past 2 weeks in Västerås, Sweden

Now
46 °F

Clear.


Feels Like: 46 °F
Forecast: 42 / 65 °F
Wind: 1 mph from Northwest

Location: Vasteras / Hasslo

Current Time: Sep 19, 2014 at 9:59:17 PM

Latest Report: Sep 19, 2014 at 9:20 PM


Visibility: 10 mi

Pressure: 30.07 "Hg

Humidity: 100%

Dew point: 46 °F

Location of VästeråsLocation

Historic Weather in Västerås — Graph

°F

Västerås temperature yesterday

Maximum temperature yesterday: 63 °F (at 2:50 PM)
Minimum temperature yesterday: 41 °F (at 1:50 AM)
Average temperature yesterday: 52 °F

Past Weeks' High & Low Weather Summary

 TemperatureHumidityPressure
High72 °F (Sep 5, 2:50 PM)100% (Sep 5, 1:20 AM)30.48 "Hg (Sep 5, 1:20 AM)
Low37 °F (Sep 17, 3:20 AM)49% (Sep 11, 4:50 PM)29.77 "Hg (Sep 9, 3:50 PM)
Average54 °F86%30.21 "Hg
* Reported Sep 4 8:20 PM — Sep 19 8:20 PM, Västerås, Weather by CustomWeather, © 2014

Note: Actual official high and low records may vary slightly from our data, if they occured in-between our weather recording intervals... More about our weather records

Advertising

Västerås weather history for previous 24 hours

 ConditionsComfort  
Time TempWeatherWind HumidityBarometerVisibility
8:20 PM
Sep 19
48 °FClear.No wind94%30.07 "Hg10 mi
7:50 PM50 °FSunny.1 mph94%30.07 "Hg10 mi
7:20 PM55 °FSunny.2 mph82%30.07 "Hg10 mi
6:50 PM57 °FSunny.No wind77%30.07 "Hg10 mi
6:20 PM63 °FSunny.No wind64%30.07 "Hg10 mi
5:50 PM66 °FSunny.No wind52%30.07 "Hg10 mi
5:20 PM64 °FSunny.2 mph56%30.07 "Hg10 mi
4:50 PM66 °FSunny.1 mph52%30.07 "Hg10 mi
4:20 PM64 °FSunny.2 mph56%30.09 "Hg10 mi
3:50 PM64 °FSunny.2 mph56%30.09 "Hg10 mi
3:20 PM64 °FSunny.1 mph64%30.09 "Hg10 mi
2:50 PM63 °FPassing clouds.3 mph68%30.09 "HgN/A
2:20 PM61 °FPassing clouds.3 mph83%30.09 "HgN/A
1:50 PM61 °FPassing clouds.5 mph83%30.12 "HgN/A
1:20 PM63 °FPassing clouds.1 mph77%30.12 "HgN/A
12:50 PM59 °FPassing clouds.No wind100%30.12 "HgN/A
12:20 PM55 °FFog.No wind100%30.12 "Hg5 mi
11:50 AM52 °FFog.No wind100%30.15 "Hg0 mi
11:20 AM52 °FFog.1 mph100%30.15 "Hg0 mi
10:50 AM52 °FFog.1 mph100%30.15 "Hg0 mi
10:20 AM52 °FFog.No wind94%30.15 "Hg0 mi
9:50 AM50 °FFog.No wind94%30.15 "Hg0 mi
9:20 AM48 °FFog.No wind100%30.15 "Hg0 mi
8:50 AM46 °FFog.No wind100%30.15 "Hg0 mi
8:20 AM45 °FFog.No wind100%30.15 "Hg0 mi
7:50 AM43 °FFog.2 mph100%30.15 "Hg0 mi
7:20 AM43 °FFog.2 mph100%30.15 "Hg0 mi
6:50 AM41 °FFog.2 mph100%30.15 "Hg0 mi
6:20 AM41 °FFog.3 mph100%30.15 "Hg0 mi
5:50 AM41 °FFog.3 mph100%30.15 "Hg0 mi
5:20 AM43 °FFog.2 mph100%30.15 "Hg0 mi
4:50 AM43 °FLight rain. Dense fog.No wind100%30.15 "Hg0 mi
4:20 AM43 °FFog.No wind100%30.15 "Hg0 mi
3:50 AM43 °FFog.2 mph100%30.15 "Hg0 mi
3:20 AM41 °FFog.2 mph100%30.15 "Hg0 mi
2:50 AM41 °FFog.1 mph100%30.15 "Hg0 mi
2:20 AM41 °FFog.No wind93%30.18 "Hg0 mi
1:50 AM39 °FDense fog.No wind100%30.18 "Hg0 mi
1:20 AM41 °FQuite cool.No wind100%30.18 "Hg0 mi
12:50 AM41 °FFog.No wind93%30.18 "Hg5 mi
12:20 AM41 °FQuite cool.3 mph100%30.18 "HgN/A
11:50 PM
Sep 18
43 °FQuite cool.No wind100%30.18 "Hg0 mi
11:20 PM43 °FQuite cool.No wind100%30.18 "HgN/A
10:20 PM45 °FFog.No wind100%30.21 "Hg6 mi
9:20 PM46 °FClear.No wind100%30.21 "Hg10 mi
Weather by CustomWeather, © 2014

See weather overviewHow to use our weather pages